Showing default

UMBRA-10, 60547

Orbit data source: Space-Track

UMBRA-10, 60547 is a payload satellite owned by Umbra Labs (US) in SSO that was launched on Fri, 16 Aug 2024 UTC via an FALCON 9 launch vehicle from the Air Force Western Test Range (AFWTR). Payload-class satellites include a variety of spacecraft equipped with specific instruments for various scientific and technological missions. These include communications satellites like Starlink; space stations such as the ISS; scientific satellites like the Hubble; Earth observation satellites from companies like Planet Labs, Umbra, and HawkEye 360; GPS; miniature CubeSats for education and research; and military/defense satellites.

Loading next visibility...
Identifier
60547, 2024-149CH
Orbit
SSO
Country
Flag of USUS
Related business
Manufacturer
Umbra Labs
Mission
Operational Commercial Radar Imaging
Bus & Motor
ESPASAT?, Unknown motor
Mass
84 kg wet, 79 kg dry
Launch date (UTC)
2024-08-16 (2 years ago)
Launch vehicle
FALCON 9
Launch site
Air Force Western Test Range (AFWTR)
Object type
Payload
Rocket body
Debris
Shape & HBR
Box + 2 Pan + 1 Dish, 2.0 m
Radar Cross Section
6.513 m², Large (>1 m²)

Expand to show TLE details & history
Last TLE update: 14 hours ago

TLE from 14 hours ago
0 UMBRA-10
1 60547U 24149CH  26163.78229124  .00018606  00000-0  91910-3 0  9999
2 60547  97.6981 250.9399 0000779  71.0119 289.1198 15.17917175100062
Epoch: 2026-06-12T18:46Z
TLE epoch observation values (Epoch: 2026-06-12T18:46:29.963Z)
Latitude
-0.00006°
Longitude
68.20827°
Altitude
515.04 km
Speed
7.606 km/s
True Right ascension
16h 43m 45s
True Declination
0° 00' 00"
Sunlit
Object was in full shadow at epoch
Visualization orbit readout
Latitude
Unknown
Longitude
Unknown
Altitude
Unknown
Speed
Unknown
Apparent Right ascension
Unknown
Apparent Declination
Unknown
Sunlit
N/A
Visualization observer readout
Local Sidereal Time
19:19:08
Azimuth
Unknown
Elevation
Unknown
Doppler factor
Unknown
Orbital elements
Apogee altitude
509.654 km
Perigee altitude
508.581 km
Semi-major axis
6,887.255 km
Eccentricity
0.00008
Inclination
97.6981°
RAAN
250.9399°
Arg. of periapsis
71.0119°
True anomaly
289.11137°
Mean anomaly
289.1198°
Eccentric anomaly
289.11558°
Mean motion
3.79729 °/min
Orbital period
94.8 mins
BSTAR
0.0009191
Loading maneuver chart data...
Computing Atmospheric mass density...
Loading historical data...
Loading historical data...
Loading historical data...
Loading historical data...
Loading historical data...
Loading historical data...
Loading historical data...

Documentation

Showing up to 5 results
|